#timestamp,LO_Frequency,Hit,StdDev 
1607209215.8,286047000.6,N
1607209235.7,286046997.2,N
1607209255.5,286046995.8,N
1607209275.3,286046993.8,N
1607209295.2,286046993.9,N
1607209315.0,286046995.6,N
1607209315.9,286046995.6,N
1607209335.8,286046993.6,N
1607209355.6,286046996.3,N
1607209375.4,286046996.8,N
1607209395.3,286046999.2,N
1607209415.1,286047000.5,N
1607209435.8,286047001.2,N
1607209455.7,286046999.6,N
1607209475.5,286046998.0,N
1607209495.4,286046993.8,N
1607209515.2,286046995.7,N
1607209535.0,286046996.5,N
1607209535.9,286046996.5,N
1607209555.8,286047000.9,N
1607209575.6,286047000.8,N
1607209595.4,286047000.3,N
1607209615.3,286046998.8,N
1607209635.1,286047000.7,N
1607209655.9,286046998.3,N
1607209675.7,286046997.5,N
1607209695.5,286046993.5,N
1607209715.4,286046992.2,N
1607209735.2,286046993.8,N
1607209755.0,286046997.6,N
1607209755.9,286046997.6,N
1607209775.8,286046999.0,N
1607209795.6,286047003.1,N
1607209815.5,286047003.6,N
1607209835.3,286047001.5,N
1607209855.1,286047002.5,N
1607209875.9,286047002.8,N
1607209895.7,286047001.3,N
1607209915.5,286046999.9,N
1607209935.4,286046997.3,N
1607209955.2,286046998.9,N
1607209975.1,286047002.2,N
1607209976.0,286047002.2,N
1607209995.8,286047003.8,N
1607210015.6,286047001.3,N
1607210035.5,286047001.3,N
1607210055.3,286047006.5,N
1607210075.1,286047006.8,N
1607210095.9,286047007.8,N
1607210115.7,286047004.8,N
1607210135.6,286047001.8,N
1607210155.4,286046999.7,N
1607210175.2,286047001.8,N
1607210195.1,286047000.4,N
1607210196.0,286047000.4,N
1607210215.8,286046998.6,N
1607210235.6,286046998.5,N
1607210255.5,286046999.1,N
1607210275.3,286046998.8,N
1607210295.2,286046996.9,N
1607210315.9,286046998.3,N
1607210335.7,286047002.7,N
1607210355.6,286047005.6,N
1607210375.4,286047005.2,N
1607210395.3,286047007.3,N
1607210415.1,286047005.5,N
1607210416.0,286047005.5,N
1607210435.8,286047005.1,N
1607210455.7,286047006.6,N
1607210475.5,286047006.7,N
1607210495.4,286047005.9,N
1607210515.2,286047006.6,N
1607210535.0,286047007.6,N
1607210535.9,286047007.6,N
1607210555.8,286047007.3,N
1607210575.6,286047007.3,N
1607210595.4,286047004.6,N
1607210615.3,286047001.4,N
1607210635.1,286047002.1,N
1607210655.9,286047002.4,N
1607210675.7,286047005.1,N
1607210695.5,286047004.5,N
1607210715.4,286047005.2,N
1607210735.2,286047007.4,N
1607210755.0,286047007.3,N
1607210756.0,286047007.3,N
1607210775.8,286047003.9,N
1607210795.6,286047003.0,N
1607210815.5,286047007.2,N
1607210835.3,286047005.1,N
1607210855.1,286047004.7,N
1607210875.9,286047006.2,Y
1607210895.7,286047006.3,P
1607210915.6,286047006.8,P
1607210935.4,286047004.1,P
1607210955.2,286047002.3,N
1607210975.1,286047000.2,N
1607210976.0,286047000.2,N
1607210995.8,286047003.6,N
1607211015.6,286047006.0,N
1607211035.5,286047003.2,N
1607211055.3,286047004.3,N
1607211075.2,286047005.9,N
1607211095.9,286047001.7,N
1607211115.7,286047003.7,N
1607211135.6,286047002.9,N
1607211155.4,286047001.3,N
1607211175.2,286046999.9,N
1607211195.1,286047002.6,N
1607211196.0,286047002.6,N
1607211215.8,286047000.7,N
1607211235.7,286046996.7,N
1607211255.5,286046994.9,N
1607211275.3,286046998.0,N
1607211295.2,286046997.0,N
1607211315.0,286046999.5,N
1607211315.9,286046999.5,N
1607211335.7,286046998.8,N
1607211355.6,286046999.6,N
1607211375.4,286046997.6,N
1607211395.3,286046996.4,N
1607211415.1,286046995.9,N
1607211416.0,286046995.9,N
1607211435.8,286046995.2,N
1607211455.7,286046994.2,N
1607211475.5,286046994.5,N
1607211495.3,286046995.9,N
1607211515.2,286046997.4,N
1607211535.0,286046996.7,N
1607211535.9,286046996.7,N
1607211555.8,286046999.6,N
1607211575.6,286046998.8,N
1607211595.4,286047001.1,N
1607211615.3,286047000.2,N
1607211635.1,286047001.1,N
1607211655.9,286047002.8,N
1607211675.7,286047000.9,N
1607211695.5,286046999.1,N
1607211715.4,286046995.4,N
1607211735.2,286046995.6,N
1607211755.0,286046995.7,N
1607211755.9,286046995.7,N
1607211775.8,286046998.2,N
1607211795.6,286046996.6,N
1607211815.5,286046993.4,Y
1607211835.3,286047001.2,P
1607211855.1,286047002.7,N
1607211875.9,286047002.3,N
1607211895.7,286047002.8,N
1607211915.6,286046999.0,N
1607211935.4,286046999.1,N
1607211955.2,286046997.8,N
1607211975.1,286046998.3,N
1607211976.0,286046998.3,N
1607211995.8,286046999.2,N
1607212015.6,286046996.0,N
1607212035.5,286046993.7,N
1607212055.3,286046994.0,N
1607212075.2,286046996.7,N
1607212095.9,286047001.0,N
1607212115.7,286046999.9,N
1607212135.6,286047003.8,N
1607212155.4,286047005.8,N
1607212175.3,286047006.5,N
1607212195.1,286047007.4,N
1607212196.0,286047007.4,N
1607212215.8,286047008.7,N
1607212235.7,286047003.6,N
1607212255.5,286047004.1,N
1607212275.3,286046999.8,N
1607212295.2,286047002.6,N
1607212315.0,286047002.1,N
1607212315.9,286047002.1,N
1607212335.8,286047000.5,N
1607212355.6,286046999.9,N
1607212375.4,286047000.2,N
1607212395.3,286046997.0,N
1607212415.1,286047000.5,N
1607212435.9,286047001.0,N
1607212455.7,286046998.3,N
1607212475.5,286046998.2,N
1607212495.4,286046997.9,N
1607212515.2,286046995.6,N
1607212535.1,286046995.0,N
1607212536.0,286046995.0,N
1607212555.8,286046997.1,N
1607212575.6,286046998.5,N
1607212595.5,286047000.7,N
1607212615.3,286046998.5,N
1607212635.1,286046998.1,N
1607212655.9,286047000.7,N
1607212675.7,286046999.1,N
1607212695.6,286046999.1,N
1607212715.4,286046996.8,N
1607212735.2,286046997.6,N
1607212755.1,286046997.9,N
1607212756.0,286046997.9,N
1607212775.8,286046998.7,N
1607212795.7,286047001.0,N
